Regional Weather Roundup
Issued by NWS

Home | Current Version | Previous Version | Text Only | Print | Product List | Glossary Off
Versions: 1 2 3 4 5 6 7 8 9 10 11 12 13 14 15 16 17 18 19 20 21 22 23 24 25 26 27 28 29 30 31 32 33 34 35 36 37 38 39 40 41 42 43 44 45 46 47 48 49 50

000
ASUS43 KOAX 140010
RWRNE

WEATHER ROUNDUP FOR NEBRASKA
NATIONAL WEATHER SERVICE OMAHA NE
600 PM CST SAT FEB 13 2016

NOTES: SATELLITE DATA IS BEING USED TO AUGMENT CLOUD COVER ABOVE
       12000 FEET.
       "FAIR" INDICATES FEW OR NO CLOUDS BELOW 12,000 FEET WITH NO
       SIGNIFICANT WEATHER AND/OR OBSTRUCTIONS TO VISIBILITY.

  * THESE STATIONS DO NOT REPORT WEATHER SUCH AS RAIN...SNOW OR FOG.

NEZ001>004-019>022-054>056-140100-
NEBRASKA PANHANDLE

CITY           SKY/WX    TMP DP  RH WIND       PRES   REMARKS
SCOTTSBLUFF    CLOUDY    58  16  19 W23G40    29.81F
6HR MIN TEMP:  39; 6HR MAX TEMP:  60;

ALLIANCE       CLOUDY    41  32  70 S10       29.77F
6HR MIN TEMP:  34; 6HR MAX TEMP:  45;

CHADRON        CLEAR     58  24  27 W21G30    29.71F
6HR MIN TEMP:  47; 6HR MAX TEMP:  62;

KIMBALL        CLOUDY    55  25  31 W17       29.87R
SIDNEY         CLOUDY    40  36  86 SW10      29.86F WCI  33
6HR MIN TEMP:  32; 6HR MAX TEMP:  48;

$$

NEZ057>060-069>072-079>082-140100-
SOUTHWEST NEBRASKA

CITY           SKY/WX    TMP DP  RH WIND       PRES   REMARKS
NORTH PLATTE   CLOUDY    26  22  84 S16       29.97F WCI  14
6HR MIN TEMP:  22; 6HR MAX TEMP:  26;

IMPERIAL       CLOUDY    30  28  92 S12       29.95F WCI  20
6HR MIN TEMP:  26; 6HR MAX TEMP:  30;

LEXINGTON      CLOUDY    25  17  70 S13       30.05F WCI  14
MCCOOK         CLOUDY    30  23  75 S12       30.02F HAZE    WCI  20
6HR MIN TEMP:  23; 6HR MAX TEMP:  30;

OGALLALA       CLOUDY    32  29  88 S12       29.92F WCI  23
$$

NEZ005>010-023>029-035>040-094-140100-
NORTH CENTRAL NEBRASKA

CITY           SKY/WX    TMP DP  RH WIND       PRES   REMARKS
VALENTINE      CLOUDY    27  23  85 S17       29.87F WCI  14
6HR MIN TEMP:  26; 6HR MAX TEMP:  29;

AINSWORTH      CLOUDY    25  21  84 S17G23    29.93F WCI  11
BROKEN BOW     CLOUDY    22  16  78 S20G26    30.02F WCI   7
6HR MIN TEMP:  20; 6HR MAX TEMP:  22;

O`NEILL        CLOUDY    21  11  66 S21       30.05F WCI   5
ORD            CLOUDY    21   9  59 SE12G22   30.07S WCI   9
6HR MIN TEMP:  19; 6HR MAX TEMP:  23;

THEDFORD       CLOUDY    26  25  95 S18G24    29.92F FOG     WCI  13
$$

NEZ041-046>049-061>064-073>077-083>087-140100-
SOUTH CENTRAL NEBRASKA

CITY           SKY/WX    TMP DP  RH WIND       PRES   REMARKS
GRAND ISLAND   CLOUDY    20   9  62 SE16      30.14F WCI   6
6HR MIN TEMP:  19; 6HR MAX TEMP:  21;

AURORA         CLOUDY    21   9  60 SE13      30.16F WCI   8
HASTINGS       CLOUDY    21   8  57 SE14      30.11F WCI   8
6HR MIN TEMP:  20; 6HR MAX TEMP:  22;

HEBRON         CLOUDY    24   6  45 SE12      30.21S WCI  13
HOLDREGE       CLOUDY    24  13  64 SE10      30.06F WCI  13
KEARNEY *      CLOUDY    21  10  63 SE16      30.10F WCI   7
YORK           CLOUDY    21   9  58 S13       30.19F WCI   9
$$

NEZ011>018-030>034-042>045-140100-
NORTHEAST NEBRASKA

CITY           SKY/WX    TMP DP  RH WIND       PRES   REMARKS
NORFOLK        CLOUDY    17   8  67 SE16      30.16F WCI   2
6HR MIN TEMP:  15; 6HR MAX TEMP:  18;

ALBION         CLOUDY    19   9  64 S16       30.15F WCI   5
BLAIR          CLOUDY    18   5  57 SE14      30.26F WCI   4
COLUMBUS *     CLOUDY    18   1  49 SE14      30.21F WCI   4
FREMONT        CLOUDY    18   5  56 E13       30.26F WCI   5
TEKAMAH        CLOUDY    17   6  62 SE17      30.29F WCI   1
6HR MIN TEMP:  11; 6HR MAX TEMP:  17;

WAYNE          CLOUDY    15   8  72 SE20      30.21F WCI  -2
$$

NEZ050>053-065>068-078-088>093-140100-
SOUTHEAST NEBRASKA

CITY           SKY/WX    TMP DP  RH WIND       PRES   REMARKS
LINCOLN        CLOUDY    20   5  52 SE14      30.27F WCI   7
6HR MIN TEMP:  18; 6HR MAX TEMP:  21;

OMAHA EPPLEY   CLOUDY    19   3  49 SE20      30.30F WCI   3
6HR MIN TEMP:  14; 6HR MAX TEMP:  19;

BEATRICE       CLOUDY    22   4  46 SE10      30.24S WCI  11
FALLS CITY     CLOUDY    20   3  48 E16       30.29F WCI   6
6HR MIN TEMP:  18; 6HR MAX TEMP:  21;

NEBRASKA CITY  CLOUDY    19   1  45 SE14      30.29F WCI   6
PLATTSMOUTH    CLOUDY    18   4  53 E13       30.29F WCI   5
$$

NEZ044-045-051>053-067-140100-
OMAHA AREA

CITY           SKY/WX    TMP DP  RH WIND       PRES   REMARKS
OMAHA EPPLEY   CLOUDY    19   3  49 SE20      30.30F WCI   3
6HR MIN TEMP:  14; 6HR MAX TEMP:  19;

BLAIR          CLOUDY    18   5  57 SE14      30.26F WCI   4
FREMONT        CLOUDY    18   5  56 E13       30.26F WCI   5
MILLARD        CLOUDY    19   4  51 SE15      30.29F WCI   5
OFFUTT AFB     CLOUDY    19   2  48 SE17      30.29F WCI   4
PLATTSMOUTH    CLOUDY    18   4  53 E13       30.29F WCI   5
WAHOO          CLOUDY    19   7  60 SE18      30.25F WCI   3
$$



USA.gov is the U.S. government's official web portal to all federal, state and local government web resources and services.